Regional Weather Roundup
Issued by NWS Boston, MA

Current Version | Previous Version | Text Only | Print | Product List | Glossary Off
Versions: 1 2 3 4 5 6 7 8 9 10 11 12 13 14 15 16 17 18 19 20 21 22 23 24 25 26 27 28

000
ASUS41 KBOX 221410
RWRBOX

REGIONAL WEATHER ROUNDUP
NATIONAL WEATHER SERVICE TAUNTON MA
1000 AM EDT SAT APR 22 2017

NOTE:  "FAIR" INDICATES FEW OR NO CLOUDS BELOW 12,000 FEET WITH NO
SIGNIFICANT WEATHER AND/OR OBSTRUCTIONS TO VISIBILITY.

MAZALL-221500-
EASTERN MASSACHUSETTS

CITY           SKY/WX    TMP DP  RH WIND       PRES   REMARKS
BOSTON         CLOUDY    44  43  96 N6        29.97F
BEVERLY        CLOUDY    44  43  96 NE10      29.95F FOG
LAWRENCE       CLOUDY    43  41  93 NE10      29.98F
BEDFORD        CLOUDY    43  39  86 N8        29.96F FOG
BLUE HILL        N/A     42  40  92 N10G18    29.92F
NORWOOD        CLOUDY    45  43  93 NE8       29.95S
MARSHFIELD     CLOUDY    45  45 100 VRB6G14   29.94F
PLYMOUTH       CLOUDY    44  43  96 N14       29.92F
TAUNTON        CLOUDY    45  43  93 N7        29.92F
NEW BEDFORD    CLOUDY    46  43  89 N12       29.90F
$$

MAZALL-221500-
CAPE COD AND THE ISLANDS

CITY           SKY/WX    TMP DP  RH WIND       PRES   REMARKS
FALMOUTH         N/A     45  45 100 MISG      29.91R
HYANNIS        CLOUDY    47  46  97 N12       29.88F
CHATHAM        CLOUDY    47  46  97 VRB6      29.90S
PROVINCETOWN   CLOUDY    45  44  97 NE12      29.93S
NANTUCKET      CLOUDY    48  46  93 N15       29.87S
MARTHAS VNYRD  CLOUDY    49  46  90 N18G26    29.89S
$$

MAZALL-221500-
CENTRAL AND WESTERN MASSACHUSETTS

CITY           SKY/WX    TMP DP  RH WIND       PRES   REMARKS
WORCESTER      LGT RAIN  39  37  92 N9        29.94S VSB<1/4
FITCHBURG      CLOUDY    42  40  92 N7        29.98S FOG
ORANGE         CLOUDY    43  40  89 N6        29.96S
SPRINGFIELD    CLOUDY    45  41  86 CALM      29.96R
WESTFIELD      CLOUDY    45  43  93 N7        29.97R
NORTH ADAMS    CLOUDY    48  43  82 CALM      29.94R
PITTSFIELD     CLOUDY    47  41  80 VRB3      29.91R
$$

RIZALL-221500-
RHODE ISLAND

CITY           SKY/WX    TMP DP  RH WIND       PRES   REMARKS
PROVIDENCE     CLOUDY    46  44  93 N15       29.93F
NEWPORT        CLOUDY    46  45  96 N12       29.90S
BLOCK ISLAND   CLOUDY    46  44  93 N10       29.92R
SMITHFIELD     CLOUDY    42  42 100 N9        29.94S FOG
WESTERLY       CLOUDY    49  45  86 N9        29.92S
$$

CTZALL-221500-
CONNECTICUT

CITY           SKY/WX    TMP DP  RH WIND       PRES   REMARKS
BRADLEY INTL   LGT RAIN  46  43  89 N7        29.97R
HARTFORD       LGT RAIN  47  43  86 N8        29.95S
BRIDGEPORT     CLOUDY    51  44  77 N8        29.93S
DANBURY        LGT RAIN  48  46  93 NE5       29.94F
GROTON         CLOUDY    49  44  83 N9        29.92R
NEW HAVEN      CLOUDY    48  44  86 N9        29.94R
CHESTER        DRIZZLE   46  45  93 N7G15     29.93R
MERIDEN        CLOUDY    49  43  80 N9        29.95R
WILLIMANTIC    LGT RAIN  48  43  82 N8        29.95R
OXFORD         CLOUDY    46  39  76 NE9       29.95S
$$

MEZ002-015-021-024-NHZ003-005-008-011-012-014-VTZ005-008-221500-
NORTHERN NEW ENGLAND

CITY           SKY/WX    TMP DP  RH WIND       PRES   REMARKS
PORTLAND ME    CLOUDY    39  38  96 NE10      30.00F FOG
BANGOR ME      CLOUDY    38  33  82 E8        30.05R
CONCORD NH     CLOUDY    41  38  89 NE6       29.98F
MANCHESTER NH  CLOUDY    41  38  89 N8        29.97F FOG
NASHUA NH      CLOUDY    41  40  96 N6        29.99S FOG
PORTSMOUTH NH  CLOUDY    42  40  95 NE8       29.96F FOG
JAFFREY NH     CLOUDY    40  40 100 CALM      29.97R FOG
KEENE NH       CLOUDY    43  38  82 NE7       29.98R
BURLINGTON VT  CLOUDY    48  44  86 E3        29.92R
MT. WASHINGTON FOG       32  32 100 W21         N/A  VSB 1/16WCI  20
$$

NYZ052-076-221500-
EASTERN NEW YORK

CITY           SKY/WX    TMP DP  RH WIND       PRES   REMARKS
ALBANY         CLOUDY    49  40  71 W10       29.96S
NEW YORK CITY  CLOUDY    53  48  83 E7        29.93S
$$

ANZALL-221500-
MARINE OBSERVATIONS

STATION/POSITION TIME  TEMP    WIND        PRES    VSBY  WAVE
                       AIR SEA DIR/SP/G                  HT/PER
                 (UTC) (F)     (DEG/KT/KT) (MB)    (MI)  (FT/S)
BOSTON BUOY      1250   43 44   50/ 12/ 14 1013.3          6/ 8
BUZZARDS BAY     1300   45      20/ 16/ 17 1012.6S
NANTUCKET SOUND  1350      48              1011.5F         2/ 4
MASS BAY-STELLWA 1304   44 45   50/ 14/ 14 1013.8R         6/ 7
ISLE OF SHOALS   1300   41      60/ 13/ 14 1015.0R
S OF BLOCK IS    1355      46                N/A           5/11
$$

......................KEY.........................
  SKY/WX - SKY CONDITION/PRESENT WEATHER
  TMP    - TEMPERATURE IN FAHRENHEIT
  DWPT   - DEWPOINT IN FAHRENHEIT
  RH     - RELATIVE HUMIDITY IN PERCENT
  WIND   - DIRECTION AND SPEED IN MPH
  PRES   - MEAN SEA LEVEL PRESSURE IN INCHES OF HG
  WCI    - WIND CHILL INDEX
  VSB    - VISIBILITY IN MILES
  HX     - HEAT INDEX
  TC     - TEMPERATURE IN CELSIUS
  VRB    - VARIABLE WIND DIRECTION
  N/A    - NOT AVAILABLE




USA.gov is the U.S. government's official web portal to all federal, state and local government web resources and services.